Radiation Dose at Monitoring Post of Fukushima Daini Nuclear Power Station
Date,Time,MP-1(microSv/h),MP-2(microSv/h),MP-3(microSv/h),MP-4(microSv/h),MP-5(microSv/h),MP-6(microSv/h),MP-7(microSv/h),Wind Direction,Wind Velocity(m/s),Rain
2018/01/23,00:00,0.295,0.187,0.305,0.287,0.270,0.159,0.102,north-northwest,13.3,Yes
2018/01/23,00:10,0.294,0.187,0.304,0.287,0.268,0.158,0.101,north,13.9,Yes
2018/01/23,00:20,0.293,0.186,0.303,0.287,0.268,0.157,0.101,north,15.9,Yes
2018/01/23,00:30,0.291,0.184,0.301,0.284,0.266,0.155,0.099,north,14.5,Yes
2018/01/23,00:40,0.289,0.185,0.301,0.284,0.266,0.156,0.098,north-northwest,14.7,Yes
2018/01/23,00:50,0.288,0.183,0.299,0.280,0.263,0.154,0.098,north-northwest,12.8,Yes
2018/01/23,01:00,0.286,0.182,0.298,0.282,0.263,0.153,0.096,north,12.5,Yes
2018/01/23,01:10,0.286,0.181,0.298,0.279,0.263,0.152,0.095,north-northwest,12.0,No
2018/01/23,01:20,0.285,0.180,0.296,0.278,0.261,0.151,0.094,north-northwest,12.6,No
2018/01/23,01:30,0.283,0.179,0.296,0.277,0.261,0.150,0.093,north-northwest,13.4,No
2018/01/23,01:40,0.282,0.177,0.296,0.276,0.259,0.148,0.092,north-northwest,13.4,No
2018/01/23,01:50,0.283,0.177,0.294,0.276,0.258,0.148,0.091,north-northwest,11.7,Yes
2018/01/23,02:00,0.280,0.178,0.294,0.276,0.259,0.146,0.090,north-northwest,11.7,Yes
2018/01/23,02:10,0.281,0.177,0.294,0.275,0.260,0.147,0.090,north-northwest,11.8,Yes
2018/01/23,02:20,0.281,0.178,0.294,0.275,0.259,0.147,0.090,north-northwest,10.9,Yes
2018/01/23,02:30,0.282,0.178,0.294,0.275,0.258,0.147,0.091,north-northwest,10.6,Yes
2018/01/23,02:40,0.282,0.177,0.295,0.273,0.260,0.146,0.090,north-northwest,10.3,Yes
2018/01/23,02:50,0.281,0.177,0.294,0.273,0.257,0.146,0.089,north-northwest,10.4,Yes
2018/01/23,03:00,0.281,0.176,0.293,0.275,0.258,0.146,0.089,north-northwest,9.8,Yes
2018/01/23,03:10,0.280,0.177,0.292,0.273,0.257,0.146,0.089,north-northwest,9.8,No
2018/01/23,03:20,0.280,0.176,0.293,0.274,0.257,0.145,0.089,north-northwest,9.8,No
2018/01/23,03:30,0.280,0.177,0.291,0.274,0.256,0.144,0.088,north-northwest,9.8,No
2018/01/23,03:40,0.279,0.174,0.293,0.273,0.256,0.144,0.087,north-northwest,9.6,No
2018/01/23,03:50,0.278,0.175,0.293,0.273,0.256,0.144,0.087,north-northwest,8.7,No
2018/01/23,04:00,0.278,0.175,0.291,0.273,0.254,0.143,0.087,north-northwest,8.7,No
2018/01/23,04:10,0.278,0.175,0.290,0.273,0.255,0.143,0.086,north-northwest,10.1,No
2018/01/23,04:20,0.277,0.175,0.289,0.273,0.254,0.142,0.086,north-northwest,8.7,No
2018/01/23,04:30,0.278,0.173,0.289,0.272,0.255,0.143,0.086,north-northwest,8.2,No
2018/01/23,04:40,0.276,0.174,0.290,0.272,0.254,0.142,0.086,north-northwest,8.4,No
2018/01/23,04:50,0.277,0.173,0.288,0.272,0.254,0.142,0.085,north-northwest,7.5,No
2018/01/23,05:00,0.275,0.173,0.287,0.271,0.254,0.142,0.086,northwest,7.3,No
2018/01/23,05:10,0.277,0.172,0.287,0.272,0.254,0.141,0.084,northwest,7.5,No
2018/01/23,05:20,0.277,0.173,0.288,0.272,0.254,0.142,0.085,northwest,6.7,No
2018/01/23,05:30,0.275,0.172,0.288,0.271,0.253,0.142,0.085,northwest,6.2,No
2018/01/23,05:40,0.277,0.173,0.287,0.271,0.252,0.142,0.084,northwest,5.2,No
2018/01/23,05:50,0.276,0.173,0.286,0.271,0.253,0.141,0.084,northwest,5.9,No
2018/01/23,06:00,0.276,0.172,0.286,0.271,0.253,0.141,0.084,northwest,6.4,No
2018/01/23,06:10,0.276,0.173,0.287,0.273,0.254,0.142,0.085,northwest,6.0,No
2018/01/23,06:20,0.276,0.172,0.286,0.271,0.254,0.141,0.085,northwest,5.4,No
2018/01/23,06:30,0.277,0.172,0.287,0.272,0.253,0.142,0.085,northwest,4.7,No
2018/01/23,06:40,0.276,0.173,0.288,0.272,0.254,0.141,0.085,northwest,4.3,No
2018/01/23,06:50,0.276,0.173,0.288,0.272,0.253,0.142,0.086,northwest,3.4,No
2018/01/23,07:00,0.275,0.172,0.286,0.272,0.253,0.142,0.085,northwest,3.8,No
2018/01/23,07:10,0.276,0.173,0.287,0.270,0.253,0.141,0.085,north-northwest,4.1,No
2018/01/23,07:20,0.276,0.173,0.287,0.270,0.253,0.141,0.085,north-northwest,3.8,No
2018/01/23,07:30,0.276,0.172,0.287,0.271,0.255,0.142,0.085,north-northwest,2.7,No
2018/01/23,07:40,0.277,0.173,0.287,0.272,0.254,0.141,0.085,north-northwest,2.4,No
2018/01/23,07:50,0.275,0.173,0.287,0.271,0.254,0.141,0.085,north-northwest,2.4,No
2018/01/23,08:00,0.275,0.173,0.286,0.272,0.253,0.141,0.084,north-northwest,3.7,No
2018/01/23,08:10,0.276,0.172,0.287,0.271,0.253,0.142,0.085,north-northwest,3.8,No
2018/01/23,08:20,0.277,0.174,0.287,0.272,0.254,0.142,0.084,north-northwest,3.6,No
2018/01/23,08:30,0.277,0.173,0.287,0.271,0.254,0.143,0.085,west-northwest,1.3,No
2018/01/23,08:40,0.277,0.172,0.287,0.271,0.252,0.142,0.084,south-southwest,4.3,No
2018/01/23,08:50,0.276,0.172,0.287,0.271,0.254,0.143,0.084,south-southwest,5.7,No
2018/01/23,09:00,0.276,0.173,0.287,0.271,0.253,0.142,0.084,south,6.2,No
2018/01/23,09:10,0.277,0.172,0.287,0.271,0.254,0.141,0.084,south,6.1,No
2018/01/23,09:20,0.277,0.173,0.286,0.269,0.254,0.141,0.084,south,5.2,No
2018/01/23,09:30,0.276,0.174,0.286,0.269,0.253,0.141,0.084,south,5.9,No
2018/01/23,09:40,0.275,0.172,0.286,0.268,0.254,0.142,0.084,south-southwest,6.7,No
2018/01/23,09:50,0.275,0.173,0.285,0.268,0.254,0.141,0.084,south,6.9,No
2018/01/23,10:00,0.276,0.173,0.285,0.267,0.254,0.142,0.084,south-southwest,7.9,No
2018/01/23,10:10,0.276,0.171,0.286,0.268,0.254,0.141,0.085,south-southwest,9.2,No
2018/01/23,10:20,0.275,0.171,0.285,0.267,0.253,0.140,0.084,south,9.3,No
2018/01/23,10:30,0.275,0.172,0.283,0.268,0.253,0.140,0.084,-,CALM,No
2018/01/23,10:40,0.275,0.173,0.283,0.268,0.255,0.140,0.084,south,8.1,No
2018/01/23,10:50,0.275,0.173,0.282,0.268,0.255,0.141,0.085,south,8.4,No
2018/01/23,11:00,0.276,0.173,0.283,0.269,0.256,0.142,0.085,south,7.3,No
2018/01/23,11:10,0.275,0.172,0.282,0.271,0.255,0.143,0.085,south,7.7,No
2018/01/23,11:20,0.275,0.173,0.283,0.271,0.254,0.142,0.086,south,7.8,No
2018/01/23,11:30,0.274,0.173,0.284,0.273,0.256,0.142,0.087,south,9.2,No
2018/01/23,11:40,0.275,0.172,0.283,0.271,0.255,0.143,0.087,south,7.6,No
2018/01/23,11:50,0.277,0.174,0.283,0.271,0.255,0.143,0.087,south,7.7,No
2018/01/23,12:00,0.275,0.173,0.283,0.273,0.259,0.144,0.088,south,5.0,No
2018/01/23,12:10,0.276,0.173,0.284,0.273,0.255,0.144,0.088,south-southwest,6.4,No
2018/01/23,12:20,0.274,0.174,0.282,0.275,0.257,0.144,0.088,south-southwest,6.4,No
2018/01/23,12:30,0.276,0.174,0.284,0.275,0.257,0.145,0.087,south,6.1,No
2018/01/23,12:40,0.276,0.174,0.284,0.275,0.258,0.145,0.089,south-southwest,5.9,No
2018/01/23,12:50,0.275,0.174,0.284,0.276,0.258,0.145,0.089,south-southwest,7.3,No
2018/01/23,13:00,0.276,0.175,0.287,0.276,0.258,0.146,0.090,south,5.5,No
2018/01/23,13:10,0.276,0.175,0.287,0.276,0.260,0.146,0.090,west-southwest,1.8,No
2018/01/23,13:20,0.279,0.173,0.289,0.278,0.257,0.146,0.089,west-southwest,5.2,No
2018/01/23,13:30,0.277,0.175,0.288,0.277,0.261,0.147,0.090,west,2.8,No
2018/01/23,13:40,0.279,0.174,0.287,0.279,0.260,0.147,0.090,west-northwest,4.6,No
2018/01/23,13:50,0.280,0.176,0.289,0.277,0.261,0.148,0.090,west,4.3,No
2018/01/23,14:00,0.281,0.176,0.290,0.280,0.260,0.148,0.091,west-southwest,3.5,No
2018/01/23,14:10,0.281,0.176,0.293,0.280,0.261,0.149,0.091,west,1.3,No
2018/01/23,14:20,0.282,0.176,0.293,0.281,0.262,0.149,0.092,northwest,2.1,No
2018/01/23,14:30,0.283,0.175,0.293,0.283,0.260,0.149,0.091,west,3.6,No
2018/01/23,14:40,0.283,0.175,0.294,0.283,0.263,0.148,0.092,west-southwest,3.6,No
2018/01/23,14:50,0.283,0.178,0.295,0.282,0.261,0.150,0.092,west-southwest,4.6,No
2018/01/23,15:00,0.283,0.177,0.292,0.284,0.263,0.149,0.093,west-southwest,2.5,No
2018/01/23,15:10,0.285,0.178,0.293,0.285,0.265,0.150,0.093,west,3.8,No
2018/01/23,15:20,0.285,0.178,0.297,0.285,0.264,0.150,0.093,west,7.0,Yes
2018/01/23,15:30,0.285,0.179,0.296,0.286,0.265,0.151,0.093,west,7.4,No
2018/01/23,15:40,0.286,0.179,0.297,0.286,0.265,0.151,0.093,west,6.8,No
2018/01/23,15:50,0.287,0.179,0.299,0.286,0.265,0.151,0.093,west-northwest,9.6,No
2018/01/23,16:00,0.287,0.179,0.298,0.287,0.265,0.152,0.093,west-northwest,11.1,No
2018/01/23,16:10,0.286,0.179,0.299,0.286,0.265,0.151,0.093,west-northwest,9.5,No
2018/01/23,16:20,0.286,0.178,0.298,0.287,0.267,0.152,0.093,west-northwest,7.4,No
2018/01/23,16:30,0.288,0.179,0.300,0.288,0.267,0.153,0.094,west-northwest,8.5,Yes
2018/01/23,16:40,0.287,0.179,0.300,0.288,0.265,0.152,0.093,northwest,9.6,No
2018/01/23,16:50,0.288,0.179,0.301,0.287,0.265,0.152,0.093,west,11.2,No
2018/01/23,17:00,0.288,0.179,0.299,0.288,0.267,0.151,0.093,west,15.0,No
2018/01/23,17:10,0.289,0.179,0.300,0.288,0.265,0.153,0.093,west-northwest,14.0,No
2018/01/23,17:20,0.290,0.179,0.301,0.290,0.265,0.152,0.093,west-northwest,14.2,No
2018/01/23,17:30,0.291,0.180,0.301,0.288,0.267,0.153,0.093,west-northwest,14.6,No
2018/01/23,17:40,0.290,0.179,0.302,0.289,0.268,0.152,0.093,west-northwest,13.9,No
2018/01/23,17:50,0.291,0.181,0.303,0.290,0.268,0.153,0.093,west-northwest,11.1,No
2018/01/23,18:00,0.292,0.181,0.303,0.291,0.270,0.153,0.093,west-northwest,10.0,No
2018/01/23,18:10,0.294,0.180,0.303,0.292,0.269,0.153,0.094,west-northwest,9.6,No
2018/01/23,18:20,0.292,0.180,0.304,0.288,0.270,0.152,0.093,west-northwest,10.3,No
2018/01/23,18:30,0.294,0.180,0.304,0.289,0.269,0.153,0.094,west-northwest,13.1,No
2018/01/23,18:40,0.293,0.180,0.303,0.289,0.268,0.154,0.093,west,13.4,No
2018/01/23,18:50,0.293,0.179,0.303,0.289,0.267,0.154,0.094,west-northwest,13.3,No
2018/01/23,19:00,0.295,0.180,0.305,0.289,0.267,0.153,0.093,west-northwest,14.9,No
2018/01/23,19:10,0.293,0.180,0.303,0.289,0.268,0.154,0.094,west-northwest,13.4,No
2018/01/23,19:20,0.294,0.181,0.305,0.290,0.268,0.154,0.093,west-northwest,15.6,No
2018/01/23,19:30,0.295,0.181,0.304,0.289,0.272,0.155,0.093,west-northwest,14.8,No
2018/01/23,19:40,0.295,0.181,0.305,0.291,0.269,0.153,0.094,northwest,13.6,No
2018/01/23,19:50,0.294,0.181,0.305,0.290,0.270,0.154,0.094,west-northwest,13.7,No
2018/01/23,20:00,0.294,0.181,0.305,0.291,0.269,0.154,0.095,west-northwest,12.5,No
2018/01/23,20:10,0.296,0.181,0.306,0.291,0.269,0.154,0.094,west,15.1,No
2018/01/23,20:20,0.296,0.182,0.305,0.291,0.269,0.155,0.095,west-northwest,12.8,No
2018/01/23,20:30,0.298,0.182,0.306,0.290,0.271,0.155,0.094,west-northwest,12.0,No
2018/01/23,20:40,0.297,0.182,0.307,0.291,0.270,0.155,0.094,west,10.1,No
2018/01/23,20:50,0.297,0.183,0.308,0.291,0.271,0.155,0.094,west-northwest,10.7,No
2018/01/23,21:00,0.296,0.182,0.307,0.292,0.269,0.155,0.094,west-northwest,9.2,No
2018/01/23,21:10,0.297,0.182,0.306,0.292,0.269,0.155,0.095,west-northwest,9.5,No
2018/01/23,21:20,0.297,0.183,0.306,0.291,0.271,0.154,0.095,west-northwest,7.0,No
2018/01/23,21:30,0.297,0.183,0.305,0.290,0.270,0.155,0.095,west-northwest,8.1,No
2018/01/23,21:40,0.298,0.182,0.306,0.291,0.269,0.155,0.094,west-northwest,7.5,No
2018/01/23,21:50,0.298,0.182,0.306,0.293,0.268,0.155,0.095,west-northwest,6.1,No
2018/01/23,22:00,0.297,0.183,0.306,0.293,0.269,0.155,0.095,northwest,6.2,No
2018/01/23,22:10,0.298,0.183,0.307,0.292,0.268,0.155,0.096,north-northwest,5.6,No
2018/01/23,22:20,0.297,0.184,0.305,0.292,0.268,0.156,0.095,north-northwest,6.1,No
2018/01/23,22:30,0.297,0.183,0.306,0.292,0.270,0.155,0.095,north,6.6,No
2018/01/23,22:40,0.298,0.183,0.305,0.293,0.269,0.156,0.094,north,8.1,No
2018/01/23,22:50,0.298,0.183,0.307,0.292,0.269,0.156,0.095,north,8.1,No
2018/01/23,23:00,0.298,0.183,0.307,0.291,0.269,0.155,0.095,north,6.6,No
2018/01/23,23:10,0.297,0.183,0.306,0.291,0.269,0.155,0.095,north,5.1,No
2018/01/23,23:20,0.297,0.184,0.307,0.293,0.269,0.154,0.095,north-northeast,3.0,No
2018/01/23,23:30,0.298,0.183,0.306,0.293,0.269,0.155,0.095,northeast,4.0,No
2018/01/23,23:40,0.297,0.183,0.307,0.292,0.268,0.156,0.095,north,2.5,No
2018/01/23,23:50,0.299,0.184,0.306,0.293,0.268,0.156,0.095,north-northwest,4.8,No
